<?xml version="1.0" encoding="UTF-8" standalone="no" ?>
<gpx xmlns="http://www.topografix.com/GPX/1/1" xmlns:xsi="http://www.w3.org/2001/XMLSchema-instance" xsi:schemaLocation="http://www.topografix.com/GPX/1/1 http://www.topografix.com/GPX/1/1/gpx.xsd" version="1.1" creator="VisuGPX - https://www.visugpx.com">
  <metadata>
    <name>Situation des sentiers PRx de la vallée du Cavu au 30/06/2026</name>
    <desc><![CDATA[Sentiers APB PRx au 30/06/2026]]></desc>
  </metadata>
  <trk>
    <name><![CDATA[PR9 - Sapara Vardata]]></name>
    <desc><![CDATA[Sentier au départ de Ranuchjaghja, rejoignant piste de Cuva, traversant piste annexe de Luviu, sentier Sapara Vardata, piste descente Ste-Lucie, chemin RD Ste-lucie et arrivée sur piste RD Ste-Lucie venant du pont de Figa]]></desc>
    <extensions>
      <line xmlns="http://www.topografix.com/GPX/gpx_style/0/2">
        <color>0000ff</color>
        <opacity>1</opacity>
        <width>4</width>
          <extensions>
            <sens>1</sens>
          </extensions>
      </line>
    </extensions>
    <trkseg>
      <trkpt lat="41.73278" lon="9.29225">
        <ele>245</ele>
        <time>2023-04-15T10:21:51Z</time>
      </trkpt>
      <trkpt lat="41.73281" lon="9.29224">
        <ele>247</ele>
        <time>2023-04-15T10:21:32Z</time>
      </trkpt>
      <trkpt lat="41.73283" lon="9.29222">
        <ele>249</ele>
        <time>2023-04-15T10:21:25Z</time>
      </trkpt>
      <trkpt lat="41.7329" lon="9.29226">
        <ele>251</ele>
        <time>2023-04-15T10:21:16Z</time>
      </trkpt>
      <trkpt lat="41.73294" lon="9.29226">
        <ele>252</ele>
        <time>2023-04-15T10:21:14Z</time>
      </trkpt>
      <trkpt lat="41.73299" lon="9.29222">
        <ele>254</ele>
        <time>2023-04-15T10:21:08Z</time>
      </trkpt>
      <trkpt lat="41.73308" lon="9.29223">
        <ele>256</ele>
        <time>2023-04-15T10:21:00Z</time>
      </trkpt>
      <trkpt lat="41.73311" lon="9.29222">
        <ele>257</ele>
        <time>2023-04-15T10:20:57Z</time>
      </trkpt>
      <trkpt lat="41.73314" lon="9.2922">
        <ele>259</ele>
        <time>2023-04-15T10:20:52Z</time>
      </trkpt>
      <trkpt lat="41.73313" lon="9.29216">
        <ele>260</ele>
        <time>2023-04-15T10:20:49Z</time>
      </trkpt>
      <trkpt lat="41.73313" lon="9.29213">
        <ele>261</ele>
        <time>2023-04-15T10:20:45Z</time>
      </trkpt>
      <trkpt lat="41.73314" lon="9.29209">
        <ele>263</ele>
        <time>2023-04-15T10:20:42Z</time>
      </trkpt>
      <trkpt lat="41.73316" lon="9.29206">
        <ele>264</ele>
        <time>2023-04-15T10:20:38Z</time>
      </trkpt>
      <trkpt lat="41.73319" lon="9.29203">
        <ele>265</ele>
        <time>2023-04-15T10:20:35Z</time>
      </trkpt>
      <trkpt lat="41.73321" lon="9.29199">
        <ele>267</ele>
        <time>2023-04-15T10:20:32Z</time>
      </trkpt>
      <trkpt lat="41.73324" lon="9.29198">
        <ele>269</ele>
        <time>2023-04-15T10:20:26Z</time>
      </trkpt>
      <trkpt lat="41.73326" lon="9.29195">
        <ele>270</ele>
        <time>2023-04-15T10:20:24Z</time>
      </trkpt>
      <trkpt lat="41.73331" lon="9.29189">
        <ele>274</ele>
        <time>2023-04-15T10:20:16Z</time>
      </trkpt>
      <trkpt lat="41.73333" lon="9.29186">
        <ele>275</ele>
        <time>2023-04-15T10:20:08Z</time>
      </trkpt>
      <trkpt lat="41.73335" lon="9.29182">
        <ele>200.3</ele>
        <time>2023-04-15T10:20:05Z</time>
      </trkpt>
      <trkpt lat="41.73339" lon="9.29177">
        <ele>201.5</ele>
        <time>2023-04-15T10:20:00Z</time>
      </trkpt>
      <trkpt lat="41.73342" lon="9.29178">
        <ele>201.5</ele>
      </trkpt>
      <trkpt lat="41.73346" lon="9.29176">
        <ele>202.3</ele>
        <time>2023-04-15T10:19:55Z</time>
      </trkpt>
      <trkpt lat="41.73346" lon="9.29167">
        <ele>283</ele>
        <time>2023-04-15T10:19:49Z</time>
      </trkpt>
      <trkpt lat="41.73349" lon="9.29164">
        <ele>285</ele>
        <time>2023-04-15T10:19:39Z</time>
      </trkpt>
      <trkpt lat="41.73353" lon="9.29161">
        <ele>206.4</ele>
        <time>2023-04-15T10:19:31Z</time>
      </trkpt>
      <trkpt lat="41.73356" lon="9.29162">
        <ele>287</ele>
        <time>2023-04-15T10:19:29Z</time>
      </trkpt>
      <trkpt lat="41.73354" lon="9.29156">
        <ele>207.8</ele>
        <time>2023-04-15T10:19:26Z</time>
      </trkpt>
      <trkpt lat="41.73355" lon="9.2915">
        <ele>209.5</ele>
      </trkpt>
      <trkpt lat="41.73355" lon="9.29146">
        <ele>210.6</ele>
        <time>2023-04-15T10:19:14Z</time>
      </trkpt>
      <trkpt lat="41.73357" lon="9.29143">
        <ele>211.5</ele>
      </trkpt>
      <trkpt lat="41.73366" lon="9.29137">
        <ele>290</ele>
        <time>2023-04-15T10:19:00Z</time>
      </trkpt>
      <trkpt lat="41.7337" lon="9.29136">
        <ele>291</ele>
        <time>2023-04-15T10:18:55Z</time>
      </trkpt>
      <trkpt lat="41.73374" lon="9.29136">
        <ele>291</ele>
        <time>2023-04-15T10:18:51Z</time>
      </trkpt>
      <trkpt lat="41.73378" lon="9.29136">
        <ele>292</ele>
        <time>2023-04-15T10:18:46Z</time>
      </trkpt>
      <trkpt lat="41.7338" lon="9.2914">
        <ele>292</ele>
        <time>2023-04-15T10:18:43Z</time>
      </trkpt>
      <trkpt lat="41.73384" lon="9.29141">
        <ele>292</ele>
        <time>2023-04-15T10:18:39Z</time>
      </trkpt>
      <trkpt lat="41.73388" lon="9.2914">
        <ele>293</ele>
        <time>2023-04-15T10:18:37Z</time>
      </trkpt>
      <trkpt lat="41.73391" lon="9.29138">
        <ele>293</ele>
        <time>2023-04-15T10:18:33Z</time>
      </trkpt>
      <trkpt lat="41.73394" lon="9.29134">
        <ele>295</ele>
        <time>2023-04-15T10:18:25Z</time>
      </trkpt>
      <trkpt lat="41.73398" lon="9.29133">
        <ele>295</ele>
        <time>2023-04-15T10:18:08Z</time>
      </trkpt>
      <trkpt lat="41.73402" lon="9.29132">
        <ele>296</ele>
        <time>2023-04-15T10:18:03Z</time>
      </trkpt>
      <trkpt lat="41.73406" lon="9.29133">
        <ele>296</ele>
        <time>2023-04-15T10:18:00Z</time>
      </trkpt>
      <trkpt lat="41.73409" lon="9.29134">
        <ele>296</ele>
        <time>2023-04-15T10:17:57Z</time>
      </trkpt>
      <trkpt lat="41.73411" lon="9.29132">
        <ele>297</ele>
        <time>2023-04-15T10:17:53Z</time>
      </trkpt>
      <trkpt lat="41.73415" lon="9.29135">
        <ele>297</ele>
        <time>2023-04-15T10:17:50Z</time>
      </trkpt>
      <trkpt lat="41.7342" lon="9.29137">
        <ele>297</ele>
        <time>2023-04-15T10:17:46Z</time>
      </trkpt>
      <trkpt lat="41.73423" lon="9.29132">
        <ele>297</ele>
        <time>2023-04-15T10:17:41Z</time>
      </trkpt>
      <trkpt lat="41.7343" lon="9.29127">
        <ele>297</ele>
        <time>2023-04-15T10:17:35Z</time>
      </trkpt>
      <trkpt lat="41.73447" lon="9.29122">
        <ele>298</ele>
        <time>2023-04-15T10:17:23Z</time>
      </trkpt>
      <trkpt lat="41.73455" lon="9.29121">
        <ele>298</ele>
        <time>2023-04-15T10:17:17Z</time>
      </trkpt>
      <trkpt lat="41.73459" lon="9.29119">
        <ele>299</ele>
        <time>2023-04-15T10:17:12Z</time>
      </trkpt>
      <trkpt lat="41.73478" lon="9.29128">
        <ele>299</ele>
        <time>2023-04-15T10:16:56Z</time>
      </trkpt>
      <trkpt lat="41.73483" lon="9.29127">
        <ele>300</ele>
        <time>2023-04-15T10:16:53Z</time>
      </trkpt>
      <trkpt lat="41.73487" lon="9.29124">
        <ele>300</ele>
        <time>2023-04-15T10:16:50Z</time>
      </trkpt>
      <trkpt lat="41.73491" lon="9.29121">
        <ele>300</ele>
        <time>2023-04-15T10:16:47Z</time>
      </trkpt>
      <trkpt lat="41.73494" lon="9.2912">
        <ele>300</ele>
        <time>2023-04-15T10:16:39Z</time>
      </trkpt>
      <trkpt lat="41.73507" lon="9.29126">
        <ele>301</ele>
        <time>2023-04-15T10:16:28Z</time>
      </trkpt>
      <trkpt lat="41.7351" lon="9.29129">
        <ele>301</ele>
        <time>2023-04-15T10:16:25Z</time>
      </trkpt>
      <trkpt lat="41.73519" lon="9.29128">
        <ele>301</ele>
        <time>2023-04-15T10:16:18Z</time>
      </trkpt>
      <trkpt lat="41.73527" lon="9.29131">
        <ele>302</ele>
        <time>2023-04-15T10:16:12Z</time>
      </trkpt>
      <trkpt lat="41.7353" lon="9.29134">
        <ele>302</ele>
        <time>2023-04-15T10:16:10Z</time>
      </trkpt>
      <trkpt lat="41.73535" lon="9.29136">
        <ele>302</ele>
        <time>2023-04-15T10:16:07Z</time>
      </trkpt>
      <trkpt lat="41.73539" lon="9.29136">
        <ele>302</ele>
        <time>2023-04-15T10:16:03Z</time>
      </trkpt>
      <trkpt lat="41.73543" lon="9.29135">
        <ele>302</ele>
        <time>2023-04-15T10:16:00Z</time>
      </trkpt>
      <trkpt lat="41.7356" lon="9.29129">
        <ele>303</ele>
        <time>2023-04-15T10:15:48Z</time>
      </trkpt>
      <trkpt lat="41.73564" lon="9.29127">
        <ele>303</ele>
        <time>2023-04-15T10:15:45Z</time>
      </trkpt>
      <trkpt lat="41.7359" lon="9.29128">
        <ele>305</ele>
        <time>2023-04-15T10:15:22Z</time>
      </trkpt>
      <trkpt lat="41.73598" lon="9.29124">
        <ele>305</ele>
        <time>2023-04-15T10:15:17Z</time>
      </trkpt>
      <trkpt lat="41.73602" lon="9.2912">
        <ele>305</ele>
        <time>2023-04-15T10:15:15Z</time>
      </trkpt>
      <trkpt lat="41.73613" lon="9.29113">
        <ele>305</ele>
        <time>2023-04-15T10:15:06Z</time>
      </trkpt>
      <trkpt lat="41.73625" lon="9.29108">
        <ele>306</ele>
        <time>2023-04-15T10:14:58Z</time>
      </trkpt>
      <trkpt lat="41.73628" lon="9.29104">
        <ele>306</ele>
        <time>2023-04-15T10:14:56Z</time>
      </trkpt>
      <trkpt lat="41.73632" lon="9.29102">
        <ele>306</ele>
        <time>2023-04-15T10:14:52Z</time>
      </trkpt>
      <trkpt lat="41.7364" lon="9.29104">
        <ele>307</ele>
        <time>2023-04-15T10:14:45Z</time>
      </trkpt>
      <trkpt lat="41.73648" lon="9.29105">
        <ele>307</ele>
        <time>2023-04-15T10:14:38Z</time>
      </trkpt>
      <trkpt lat="41.73653" lon="9.29106">
        <ele>307</ele>
        <time>2023-04-15T10:14:34Z</time>
      </trkpt>
      <trkpt lat="41.73671" lon="9.29106">
        <ele>308</ele>
        <time>2023-04-15T10:14:16Z</time>
      </trkpt>
      <trkpt lat="41.73676" lon="9.29105">
        <ele>308</ele>
        <time>2023-04-15T10:14:13Z</time>
      </trkpt>
      <trkpt lat="41.73683" lon="9.29103">
        <ele>309</ele>
        <time>2023-04-15T10:14:07Z</time>
      </trkpt>
      <trkpt lat="41.73692" lon="9.29102">
        <ele>309</ele>
        <time>2023-04-15T10:14:00Z</time>
      </trkpt>
      <trkpt lat="41.73696" lon="9.291">
        <ele>310</ele>
        <time>2023-04-15T10:13:55Z</time>
      </trkpt>
      <trkpt lat="41.73699" lon="9.29098">
        <ele>310</ele>
        <time>2023-04-15T10:13:52Z</time>
      </trkpt>
      <trkpt lat="41.73703" lon="9.29094">
        <ele>310</ele>
        <time>2023-04-15T10:13:47Z</time>
      </trkpt>
      <trkpt lat="41.73712" lon="9.29094">
        <ele>311</ele>
        <time>2023-04-15T10:13:39Z</time>
      </trkpt>
      <trkpt lat="41.73719" lon="9.29097">
        <ele>311</ele>
        <time>2023-04-15T10:13:31Z</time>
      </trkpt>
      <trkpt lat="41.7373" lon="9.29097">
        <ele>312</ele>
        <time>2023-04-15T10:13:18Z</time>
      </trkpt>
      <trkpt lat="41.73734" lon="9.29096">
        <ele>313</ele>
        <time>2023-04-15T10:13:15Z</time>
      </trkpt>
      <trkpt lat="41.73738" lon="9.29094">
        <ele>313</ele>
        <time>2023-04-15T10:13:12Z</time>
      </trkpt>
      <trkpt lat="41.73755" lon="9.29088">
        <ele>314</ele>
        <time>2023-04-15T10:13:00Z</time>
      </trkpt>
      <trkpt lat="41.73758" lon="9.29086">
        <ele>314</ele>
        <time>2023-04-15T10:12:57Z</time>
      </trkpt>
      <trkpt lat="41.73763" lon="9.29078">
        <ele>315</ele>
        <time>2023-04-15T10:12:51Z</time>
      </trkpt>
      <trkpt lat="41.73767" lon="9.29076">
        <ele>315</ele>
        <time>2023-04-15T10:12:47Z</time>
      </trkpt>
      <trkpt lat="41.73771" lon="9.29076">
        <ele>315</ele>
        <time>2023-04-15T10:12:44Z</time>
      </trkpt>
      <trkpt lat="41.73775" lon="9.29074">
        <ele>315</ele>
        <time>2023-04-15T10:12:40Z</time>
      </trkpt>
      <trkpt lat="41.73778" lon="9.29072">
        <ele>316</ele>
        <time>2023-04-15T10:12:37Z</time>
      </trkpt>
      <trkpt lat="41.73782" lon="9.29072">
        <ele>316</ele>
        <time>2023-04-15T10:12:34Z</time>
      </trkpt>
      <trkpt lat="41.73798" lon="9.29067">
        <ele>317</ele>
        <time>2023-04-15T10:12:18Z</time>
      </trkpt>
      <trkpt lat="41.73806" lon="9.29067">
        <ele>318</ele>
        <time>2023-04-15T10:12:13Z</time>
      </trkpt>
      <trkpt lat="41.7381" lon="9.29064">
        <ele>318</ele>
        <time>2023-04-15T10:12:09Z</time>
      </trkpt>
      <trkpt lat="41.73814" lon="9.29065">
        <ele>318</ele>
        <time>2023-04-15T10:12:05Z</time>
      </trkpt>
      <trkpt lat="41.73821" lon="9.29062">
        <ele>319</ele>
        <time>2023-04-15T10:11:56Z</time>
      </trkpt>
      <trkpt lat="41.73825" lon="9.29062">
        <ele>320</ele>
        <time>2023-04-15T10:11:53Z</time>
      </trkpt>
      <trkpt lat="41.73829" lon="9.29062">
        <ele>320</ele>
        <time>2023-04-15T10:11:49Z</time>
      </trkpt>
      <trkpt lat="41.73833" lon="9.29063">
        <ele>321</ele>
        <time>2023-04-15T10:11:45Z</time>
      </trkpt>
      <trkpt lat="41.73836" lon="9.29065">
        <ele>321</ele>
        <time>2023-04-15T10:11:35Z</time>
      </trkpt>
      <trkpt lat="41.73839" lon="9.29066">
        <ele>322</ele>
        <time>2023-04-15T10:11:27Z</time>
      </trkpt>
      <trkpt lat="41.73843" lon="9.29065">
        <ele>322</ele>
        <time>2023-04-15T10:11:21Z</time>
      </trkpt>
      <trkpt lat="41.73846" lon="9.29065">
        <ele>323</ele>
        <time>2023-04-15T10:11:11Z</time>
      </trkpt>
      <trkpt lat="41.73849" lon="9.29062">
        <ele>323</ele>
        <time>2023-04-15T10:11:08Z</time>
      </trkpt>
      <trkpt lat="41.73855" lon="9.29056">
        <ele>324</ele>
        <time>2023-04-15T10:11:03Z</time>
      </trkpt>
      <trkpt lat="41.73863" lon="9.29048">
        <ele>324</ele>
        <time>2023-04-15T10:10:54Z</time>
      </trkpt>
      <trkpt lat="41.73875" lon="9.29042">
        <ele>325</ele>
        <time>2023-04-15T10:10:41Z</time>
      </trkpt>
      <trkpt lat="41.7388" lon="9.29038">
        <ele>326</ele>
        <time>2023-04-15T10:10:36Z</time>
      </trkpt>
      <trkpt lat="41.73884" lon="9.29036">
        <ele>326</ele>
        <time>2023-04-15T10:10:34Z</time>
      </trkpt>
      <trkpt lat="41.73888" lon="9.29033">
        <ele>326</ele>
        <time>2023-04-15T10:10:30Z</time>
      </trkpt>
      <trkpt lat="41.73889" lon="9.29028">
        <ele>327</ele>
        <time>2023-04-15T10:10:23Z</time>
      </trkpt>
      <trkpt lat="41.73891" lon="9.29024">
        <ele>327</ele>
        <time>2023-04-15T10:10:18Z</time>
      </trkpt>
      <trkpt lat="41.73898" lon="9.29015">
        <ele>327</ele>
        <time>2023-04-15T10:10:08Z</time>
      </trkpt>
      <trkpt lat="41.739" lon="9.29012">
        <ele>328</ele>
        <time>2023-04-15T10:10:05Z</time>
      </trkpt>
      <trkpt lat="41.73904" lon="9.29011">
        <ele>328</ele>
        <time>2023-04-15T10:10:03Z</time>
      </trkpt>
      <trkpt lat="41.73907" lon="9.29012">
        <ele>328</ele>
        <time>2023-04-15T10:10:01Z</time>
      </trkpt>
      <trkpt lat="41.7392" lon="9.29005">
        <ele>329</ele>
        <time>2023-04-15T10:09:42Z</time>
      </trkpt>
      <trkpt lat="41.73923" lon="9.29008">
        <ele>329</ele>
        <time>2023-04-15T10:09:37Z</time>
      </trkpt>
      <trkpt lat="41.73926" lon="9.29008">
        <ele>329</ele>
        <time>2023-04-15T10:09:33Z</time>
      </trkpt>
      <trkpt lat="41.73929" lon="9.29007">
        <ele>330</ele>
        <time>2023-04-15T10:09:29Z</time>
      </trkpt>
      <trkpt lat="41.73932" lon="9.29009">
        <ele>330</ele>
        <time>2023-04-15T10:09:26Z</time>
      </trkpt>
      <trkpt lat="41.73935" lon="9.29009">
        <ele>330</ele>
        <time>2023-04-15T10:09:24Z</time>
      </trkpt>
      <trkpt lat="41.73939" lon="9.29009">
        <ele>330</ele>
        <time>2023-04-15T10:09:21Z</time>
      </trkpt>
      <trkpt lat="41.73952" lon="9.29007">
        <ele>331</ele>
        <time>2023-04-15T10:09:03Z</time>
      </trkpt>
      <trkpt lat="41.73953" lon="9.2901">
        <ele>332</ele>
        <time>2023-04-15T10:08:58Z</time>
      </trkpt>
      <trkpt lat="41.73956" lon="9.29013">
        <ele>332</ele>
        <time>2023-04-15T10:08:53Z</time>
      </trkpt>
      <trkpt lat="41.73962" lon="9.29013">
        <ele>332</ele>
        <time>2023-04-15T10:08:46Z</time>
      </trkpt>
      <trkpt lat="41.73964" lon="9.29013">
        <ele>333</ele>
        <time>2023-04-15T10:08:41Z</time>
      </trkpt>
      <trkpt lat="41.73967" lon="9.29011">
        <ele>333</ele>
        <time>2023-04-15T10:08:37Z</time>
      </trkpt>
      <trkpt lat="41.7397" lon="9.29009">
        <ele>333</ele>
        <time>2023-04-15T10:08:32Z</time>
      </trkpt>
      <trkpt lat="41.73972" lon="9.29011">
        <ele>333</ele>
        <time>2023-04-15T10:08:28Z</time>
      </trkpt>
      <trkpt lat="41.73975" lon="9.2901">
        <ele>334</ele>
        <time>2023-04-15T10:08:22Z</time>
      </trkpt>
      <trkpt lat="41.73979" lon="9.29011">
        <ele>334</ele>
        <time>2023-04-15T10:08:19Z</time>
      </trkpt>
      <trkpt lat="41.73981" lon="9.29008">
        <ele>334</ele>
        <time>2023-04-15T10:08:13Z</time>
      </trkpt>
      <trkpt lat="41.73984" lon="9.29008">
        <ele>334</ele>
        <time>2023-04-15T10:08:10Z</time>
      </trkpt>
      <trkpt lat="41.73987" lon="9.29008">
        <ele>334</ele>
        <time>2023-04-15T10:08:07Z</time>
      </trkpt>
      <trkpt lat="41.73993" lon="9.29013">
        <ele>334</ele>
        <time>2023-04-15T10:08:02Z</time>
      </trkpt>
      <trkpt lat="41.74009" lon="9.29013">
        <ele>335</ele>
        <time>2023-04-15T10:07:42Z</time>
      </trkpt>
      <trkpt lat="41.74013" lon="9.29011">
        <ele>335</ele>
        <time>2023-04-15T10:07:39Z</time>
      </trkpt>
      <trkpt lat="41.74021" lon="9.2901">
        <ele>335</ele>
        <time>2023-04-15T10:07:30Z</time>
      </trkpt>
      <trkpt lat="41.74024" lon="9.29006">
        <ele>335</ele>
        <time>2023-04-15T10:07:24Z</time>
      </trkpt>
      <trkpt lat="41.74037" lon="9.28995">
        <ele>336</ele>
        <time>2023-04-15T10:07:10Z</time>
      </trkpt>
      <trkpt lat="41.7404" lon="9.28991">
        <ele>336</ele>
        <time>2023-04-15T10:07:06Z</time>
      </trkpt>
      <trkpt lat="41.74045" lon="9.2897">
        <ele>336</ele>
        <time>2023-04-15T10:06:51Z</time>
      </trkpt>
      <trkpt lat="41.74041" lon="9.2896">
        <ele>336</ele>
        <time>2023-04-15T10:06:42Z</time>
      </trkpt>
      <trkpt lat="41.74038" lon="9.28954">
        <ele>336</ele>
        <time>2023-04-15T10:06:39Z</time>
      </trkpt>
      <trkpt lat="41.74038" lon="9.28949">
        <ele>336</ele>
        <time>2023-04-15T10:06:35Z</time>
      </trkpt>
      <trkpt lat="41.74037" lon="9.28944">
        <ele>336</ele>
        <time>2023-04-15T10:06:29Z</time>
      </trkpt>
      <trkpt lat="41.7404" lon="9.28939">
        <ele>336</ele>
        <time>2023-04-15T10:06:26Z</time>
      </trkpt>
      <trkpt lat="41.74046" lon="9.28929">
        <ele>336</ele>
        <time>2023-04-15T10:06:21Z</time>
      </trkpt>
      <trkpt lat="41.74049" lon="9.28921">
        <ele>336</ele>
        <time>2023-04-15T10:06:17Z</time>
      </trkpt>
      <trkpt lat="41.74051" lon="9.28916">
        <ele>337</ele>
        <time>2023-04-15T10:06:14Z</time>
      </trkpt>
      <trkpt lat="41.74053" lon="9.28911">
        <ele>337</ele>
        <time>2023-04-15T10:06:08Z</time>
      </trkpt>
      <trkpt lat="41.74065" lon="9.28896">
        <ele>337</ele>
        <time>2023-04-15T10:05:43Z</time>
      </trkpt>
      <trkpt lat="41.74068" lon="9.28887">
        <ele>337</ele>
        <time>2023-04-15T10:05:36Z</time>
      </trkpt>
      <trkpt lat="41.74074" lon="9.28873">
        <ele>337</ele>
        <time>2023-04-15T10:05:26Z</time>
      </trkpt>
      <trkpt lat="41.74078" lon="9.28867">
        <ele>337</ele>
        <time>2023-04-15T10:05:16Z</time>
      </trkpt>
      <trkpt lat="41.74081" lon="9.28863">
        <ele>337</ele>
        <time>2023-04-15T10:05:11Z</time>
      </trkpt>
      <trkpt lat="41.74092" lon="9.28849">
        <ele>337</ele>
        <time>2023-04-15T10:04:55Z</time>
      </trkpt>
      <trkpt lat="41.74096" lon="9.28845">
        <ele>337</ele>
        <time>2023-04-15T10:04:51Z</time>
      </trkpt>
      <trkpt lat="41.7411" lon="9.28819">
        <ele>337</ele>
        <time>2023-04-15T10:04:23Z</time>
      </trkpt>
      <trkpt lat="41.74111" lon="9.28811">
        <ele>337</ele>
        <time>2023-04-15T10:04:19Z</time>
      </trkpt>
      <trkpt lat="41.74122" lon="9.28804">
        <ele>338</ele>
        <time>2023-04-15T10:04:04Z</time>
      </trkpt>
      <trkpt lat="41.74124" lon="9.28801">
        <ele>338</ele>
        <time>2023-04-15T10:03:54Z</time>
      </trkpt>
      <trkpt lat="41.74129" lon="9.28794">
        <ele>338</ele>
        <time>2023-04-15T10:03:44Z</time>
      </trkpt>
      <trkpt lat="41.7413" lon="9.28786">
        <ele>338</ele>
        <time>2023-04-15T10:03:38Z</time>
      </trkpt>
      <trkpt lat="41.7413" lon="9.28776">
        <ele>338</ele>
        <time>2023-04-15T10:03:30Z</time>
      </trkpt>
      <trkpt lat="41.7413" lon="9.28772">
        <ele>338</ele>
        <time>2023-04-15T10:03:25Z</time>
      </trkpt>
      <trkpt lat="41.74133" lon="9.2875">
        <ele>338</ele>
        <time>2023-04-15T10:02:51Z</time>
      </trkpt>
      <trkpt lat="41.74134" lon="9.28733">
        <ele>338</ele>
        <time>2023-04-15T10:02:41Z</time>
      </trkpt>
      <trkpt lat="41.74138" lon="9.28729">
        <ele>338</ele>
        <time>2023-04-15T10:02:38Z</time>
      </trkpt>
      <trkpt lat="41.74145" lon="9.28723">
        <ele>338</ele>
        <time>2023-04-15T10:02:30Z</time>
      </trkpt>
      <trkpt lat="41.74147" lon="9.28719">
        <ele>338</ele>
        <time>2023-04-15T10:02:25Z</time>
      </trkpt>
      <trkpt lat="41.74152" lon="9.28698">
        <ele>338</ele>
        <time>2023-04-15T10:02:16Z</time>
      </trkpt>
      <trkpt lat="41.74156" lon="9.28691">
        <ele>338</ele>
        <time>2023-04-15T10:02:12Z</time>
      </trkpt>
      <trkpt lat="41.74161" lon="9.28678">
        <ele>339</ele>
        <time>2023-04-15T10:02:06Z</time>
      </trkpt>
      <trkpt lat="41.74161" lon="9.28662">
        <ele>339</ele>
        <time>2023-04-15T10:01:58Z</time>
      </trkpt>
      <trkpt lat="41.74166" lon="9.28659">
        <ele>339</ele>
        <time>2023-04-15T10:01:54Z</time>
      </trkpt>
      <trkpt lat="41.74171" lon="9.28653">
        <ele>339</ele>
        <time>2023-04-15T10:01:40Z</time>
      </trkpt>
      <trkpt lat="41.74175" lon="9.28648">
        <ele>339</ele>
        <time>2023-04-15T10:01:37Z</time>
      </trkpt>
      <trkpt lat="41.74181" lon="9.28642">
        <ele>339</ele>
        <time>2023-04-15T10:01:30Z</time>
      </trkpt>
      <trkpt lat="41.74183" lon="9.28638">
        <ele>339</ele>
        <time>2023-04-15T10:01:27Z</time>
      </trkpt>
      <trkpt lat="41.74187" lon="9.28634">
        <ele>338</ele>
        <time>2023-04-15T10:01:12Z</time>
      </trkpt>
      <trkpt lat="41.7419" lon="9.2863">
        <ele>338</ele>
        <time>2023-04-15T10:01:04Z</time>
      </trkpt>
      <trkpt lat="41.74194" lon="9.28627">
        <ele>338</ele>
        <time>2023-04-15T10:00:56Z</time>
      </trkpt>
      <trkpt lat="41.74196" lon="9.28624">
        <ele>338</ele>
        <time>2023-04-15T10:00:45Z</time>
      </trkpt>
      <trkpt lat="41.74198" lon="9.28619">
        <ele>337</ele>
        <time>2023-04-15T10:00:15Z</time>
      </trkpt>
      <trkpt lat="41.74202" lon="9.28619">
        <ele>338</ele>
        <time>2023-04-15T10:00:03Z</time>
      </trkpt>
      <trkpt lat="41.74207" lon="9.28616">
        <ele>338</ele>
        <time>2023-04-15T09:59:55Z</time>
      </trkpt>
      <trkpt lat="41.7421" lon="9.28617">
        <ele>338</ele>
        <time>2023-04-15T09:59:47Z</time>
      </trkpt>
      <trkpt lat="41.74216" lon="9.28617">
        <ele>338</ele>
        <time>2023-04-15T09:59:39Z</time>
      </trkpt>
      <trkpt lat="41.74224" lon="9.28612">
        <ele>339</ele>
        <time>2023-04-15T09:59:23Z</time>
      </trkpt>
      <trkpt lat="41.74231" lon="9.28612">
        <ele>340</ele>
        <time>2023-04-15T09:59:09Z</time>
      </trkpt>
      <trkpt lat="41.74235" lon="9.28611">
        <ele>341</ele>
        <time>2023-04-15T09:59:03Z</time>
      </trkpt>
      <trkpt lat="41.74238" lon="9.28604">
        <ele>341</ele>
        <time>2023-04-15T09:58:49Z</time>
      </trkpt>
      <trkpt lat="41.74239" lon="9.28598">
        <ele>341</ele>
        <time>2023-04-15T09:58:38Z</time>
      </trkpt>
      <trkpt lat="41.7424" lon="9.28593">
        <ele>341</ele>
        <time>2023-04-15T09:58:35Z</time>
      </trkpt>
      <trkpt lat="41.74243" lon="9.28589">
        <ele>342</ele>
        <time>2023-04-15T09:58:32Z</time>
      </trkpt>
      <trkpt lat="41.74253" lon="9.28584">
        <ele>343</ele>
        <time>2023-04-15T09:58:13Z</time>
      </trkpt>
      <trkpt lat="41.74256" lon="9.28581">
        <ele>344</ele>
        <time>2023-04-15T09:57:42Z</time>
      </trkpt>
      <trkpt lat="41.74256" lon="9.28577">
        <ele>344</ele>
        <time>2023-04-15T09:57:38Z</time>
      </trkpt>
      <trkpt lat="41.74257" lon="9.28571">
        <ele>344</ele>
        <time>2023-04-15T09:57:34Z</time>
      </trkpt>
      <trkpt lat="41.74261" lon="9.28562">
        <ele>345</ele>
        <time>2023-04-15T09:57:24Z</time>
      </trkpt>
      <trkpt lat="41.74263" lon="9.28559">
        <ele>346</ele>
        <time>2023-04-15T09:57:21Z</time>
      </trkpt>
      <trkpt lat="41.74266" lon="9.28558">
        <ele>346</ele>
        <time>2023-04-15T09:57:17Z</time>
      </trkpt>
      <trkpt lat="41.74268" lon="9.28555">
        <ele>347</ele>
        <time>2023-04-15T09:56:49Z</time>
      </trkpt>
      <trkpt lat="41.74271" lon="9.28554">
        <ele>347</ele>
        <time>2023-04-15T09:56:43Z</time>
      </trkpt>
      <trkpt lat="41.74272" lon="9.2855">
        <ele>350</ele>
        <time>2023-04-15T09:56:39Z</time>
      </trkpt>
      <trkpt lat="41.74271" lon="9.28545">
        <ele>350</ele>
        <time>2023-04-15T09:56:27Z</time>
      </trkpt>
      <trkpt lat="41.7427" lon="9.28543">
        <ele>352</ele>
        <time>2023-04-15T09:55:39Z</time>
      </trkpt>
      <trkpt lat="41.7427" lon="9.28539">
        <ele>353</ele>
        <time>2023-04-15T09:55:36Z</time>
      </trkpt>
      <trkpt lat="41.74269" lon="9.28534">
        <ele>355</ele>
        <time>2023-04-15T09:55:32Z</time>
      </trkpt>
      <trkpt lat="41.74268" lon="9.2853">
        <ele>356</ele>
        <time>2023-04-15T09:55:26Z</time>
      </trkpt>
      <trkpt lat="41.74269" lon="9.28526">
        <ele>357</ele>
        <time>2023-04-15T09:55:23Z</time>
      </trkpt>
      <trkpt lat="41.74275" lon="9.28516">
        <ele>359</ele>
        <time>2023-04-15T09:55:13Z</time>
      </trkpt>
      <trkpt lat="41.74275" lon="9.28511">
        <ele>362</ele>
        <time>2023-04-15T09:54:50Z</time>
      </trkpt>
      <trkpt lat="41.74279" lon="9.28511">
        <ele>365</ele>
        <time>2023-04-15T09:54:49Z</time>
      </trkpt>
      <trkpt lat="41.74279" lon="9.28511">
        <ele>366</ele>
        <time>2023-04-15T09:54:48Z</time>
      </trkpt>
      <trkpt lat="41.74282" lon="9.28499">
        <ele>323.3</ele>
      </trkpt>
      <trkpt lat="41.7429" lon="9.28485">
        <ele>322.7</ele>
      </trkpt>
      <trkpt lat="41.74296" lon="9.28461">
        <ele>321.8</ele>
      </trkpt>
      <trkpt lat="41.74298" lon="9.28439">
        <ele>320.6</ele>
      </trkpt>
      <trkpt lat="41.74292" lon="9.28409">
        <ele>318.9</ele>
      </trkpt>
      <trkpt lat="41.74286" lon="9.28395">
        <ele>318.1</ele>
      </trkpt>
      <trkpt lat="41.74282" lon="9.28389">
        <ele>317.8</ele>
      </trkpt>
      <trkpt lat="41.74278" lon="9.28382">
        <ele>317.6</ele>
      </trkpt>
      <trkpt lat="41.74271" lon="9.28374">
        <ele>318.4</ele>
      </trkpt>
      <trkpt lat="41.74272" lon="9.28365">
        <ele>316.4</ele>
      </trkpt>
      <trkpt lat="41.74272" lon="9.28361">
        <ele>315.9</ele>
        <time>2022-04-30T10:51:26Z</time>
      </trkpt>
      <trkpt lat="41.74274" lon="9.28354">
        <ele>313.7</ele>
        <time>2022-04-30T10:51:10Z</time>
      </trkpt>
      <trkpt lat="41.74275" lon="9.28347">
        <ele>311.8</ele>
        <time>2022-04-30T10:50:56Z</time>
      </trkpt>
      <trkpt lat="41.74278" lon="9.2834">
        <ele>309.3</ele>
        <time>2022-04-30T10:50:40Z</time>
      </trkpt>
      <trkpt lat="41.74276" lon="9.28335">
        <ele>308.9</ele>
      </trkpt>
      <trkpt lat="41.74274" lon="9.28327">
        <ele>308.1</ele>
        <time>2022-04-30T10:50:23Z</time>
      </trkpt>
      <trkpt lat="41.7427" lon="9.28316">
        <ele>307.8</ele>
        <time>2022-04-30T10:50:14Z</time>
      </trkpt>
      <trkpt lat="41.74268" lon="9.28304">
        <ele>307.3</ele>
        <time>2022-04-30T10:50:06Z</time>
      </trkpt>
      <trkpt lat="41.7427" lon="9.28294">
        <ele>308.2</ele>
      </trkpt>
      <trkpt lat="41.74274" lon="9.28292">
        <ele>307.7</ele>
        <time>2022-04-30T10:48:32Z</time>
      </trkpt>
      <trkpt lat="41.7428" lon="9.2829">
        <ele>307.9</ele>
      </trkpt>
      <trkpt lat="41.74286" lon="9.28289">
        <ele>308.8</ele>
      </trkpt>
      <trkpt lat="41.74293" lon="9.28291">
        <ele>309.5</ele>
        <time>2022-04-30T10:48:14Z</time>
      </trkpt>
      <trkpt lat="41.74303" lon="9.2829">
        <ele>311.1</ele>
        <time>2022-04-30T10:48:08Z</time>
      </trkpt>
      <trkpt lat="41.74314" lon="9.2829">
        <ele>311.8</ele>
        <time>2022-04-30T10:48:04Z</time>
      </trkpt>
      <trkpt lat="41.74322" lon="9.2829">
        <ele>312</ele>
        <time>2022-04-30T10:47:56Z</time>
      </trkpt>
      <trkpt lat="41.74331" lon="9.28286">
        <ele>313.1</ele>
        <time>2022-04-30T10:47:44Z</time>
      </trkpt>
      <trkpt lat="41.74342" lon="9.28285">
        <ele>313.6</ele>
      </trkpt>
      <trkpt lat="41.74353" lon="9.28284">
        <ele>313.7</ele>
        <time>2022-04-30T10:47:24Z</time>
      </trkpt>
      <trkpt lat="41.7436" lon="9.28285">
        <ele>313.6</ele>
        <time>2022-04-30T10:47:14Z</time>
      </trkpt>
      <trkpt lat="41.74367" lon="9.2828">
        <ele>314.2</ele>
        <time>2022-04-30T10:47:06Z</time>
      </trkpt>
      <trkpt lat="41.74374" lon="9.28276">
        <ele>314.4</ele>
      </trkpt>
      <trkpt lat="41.74384" lon="9.28272">
        <ele>314.1</ele>
        <time>2022-04-30T10:46:57Z</time>
      </trkpt>
      <trkpt lat="41.7439" lon="9.28268">
        <ele>314.3</ele>
        <time>2022-04-30T10:46:48Z</time>
      </trkpt>
      <trkpt lat="41.74397" lon="9.28262">
        <ele>315.1</ele>
        <time>2022-04-30T10:46:39Z</time>
      </trkpt>
      <trkpt lat="41.74403" lon="9.28256">
        <ele>315.4</ele>
        <time>2022-04-30T10:46:30Z</time>
      </trkpt>
      <trkpt lat="41.74413" lon="9.28251">
        <ele>315.2</ele>
      </trkpt>
      <trkpt lat="41.7442" lon="9.28246">
        <ele>315.2</ele>
        <time>2022-04-30T10:46:07Z</time>
      </trkpt>
      <trkpt lat="41.74423" lon="9.28238">
        <ele>315.5</ele>
        <time>2022-04-30T10:45:54Z</time>
      </trkpt>
      <trkpt lat="41.7443" lon="9.28231">
        <ele>315.1</ele>
        <time>2022-04-30T10:45:41Z</time>
      </trkpt>
      <trkpt lat="41.74433" lon="9.2822">
        <ele>314.4</ele>
        <time>2022-04-30T10:45:32Z</time>
      </trkpt>
      <trkpt lat="41.74436" lon="9.28209">
        <ele>313</ele>
      </trkpt>
      <trkpt lat="41.74438" lon="9.28201">
        <ele>311.8</ele>
      </trkpt>
      <trkpt lat="41.74438" lon="9.28191">
        <ele>310.5</ele>
        <time>2022-04-30T10:44:40Z</time>
      </trkpt>
      <trkpt lat="41.74437" lon="9.28179">
        <ele>308.6</ele>
        <time>2022-04-30T10:44:29Z</time>
      </trkpt>
      <trkpt lat="41.74438" lon="9.28169">
        <ele>306.2</ele>
        <time>2022-04-30T10:44:19Z</time>
      </trkpt>
      <trkpt lat="41.74434" lon="9.28155">
        <ele>304.9</ele>
        <time>2022-04-30T10:44:00Z</time>
      </trkpt>
      <trkpt lat="41.74433" lon="9.28151">
        <ele>304.4</ele>
      </trkpt>
      <trkpt lat="41.74376" lon="9.28068">
        <ele>303</ele>
      </trkpt>
      <trkpt lat="41.74389" lon="9.28012">
        <ele>300.6</ele>
      </trkpt>
      <trkpt lat="41.74421" lon="9.2797">
        <ele>297.9</ele>
      </trkpt>
      <trkpt lat="41.74477" lon="9.27968">
        <ele>295.1</ele>
      </trkpt>
      <trkpt lat="41.74521" lon="9.27868">
        <ele>289.2</ele>
      </trkpt>
      <trkpt lat="41.74545" lon="9.27703">
        <ele>273.5</ele>
      </trkpt>
      <trkpt lat="41.74549" lon="9.27692">
        <ele>271.2</ele>
      </trkpt>
      <trkpt lat="41.74547" lon="9.27693">
        <ele>271.8</ele>
        <time>2023-02-04T11:21:19Z</time>
      </trkpt>
      <trkpt lat="41.74545" lon="9.27689">
        <ele>271</ele>
        <time>2023-02-04T11:21:03Z</time>
      </trkpt>
      <trkpt lat="41.74538" lon="9.27681">
        <ele>271.4</ele>
      </trkpt>
      <trkpt lat="41.74531" lon="9.27678">
        <ele>272.1</ele>
        <time>2023-02-04T11:20:48Z</time>
      </trkpt>
      <trkpt lat="41.74526" lon="9.27671">
        <ele>271.2</ele>
        <time>2023-02-04T11:20:44Z</time>
      </trkpt>
      <trkpt lat="41.74525" lon="9.27663">
        <ele>270.2</ele>
        <time>2023-02-04T11:20:38Z</time>
      </trkpt>
      <trkpt lat="41.74526" lon="9.27654">
        <ele>270.2</ele>
        <time>2023-02-04T11:20:34Z</time>
      </trkpt>
      <trkpt lat="41.74536" lon="9.27652">
        <ele>269</ele>
      </trkpt>
      <trkpt lat="41.74542" lon="9.27642">
        <ele>268.8</ele>
        <time>2023-02-04T11:20:25Z</time>
      </trkpt>
      <trkpt lat="41.74538" lon="9.27635">
        <ele>269.8</ele>
        <time>2023-02-04T11:20:20Z</time>
      </trkpt>
      <trkpt lat="41.74538" lon="9.27633">
        <ele>270.1</ele>
      </trkpt>
      <trkpt lat="41.74543" lon="9.2763">
        <ele>270.5</ele>
        <time>2023-02-04T11:20:04Z</time>
      </trkpt>
      <trkpt lat="41.74552" lon="9.2763">
        <ele>270.4</ele>
        <time>2023-02-04T11:19:50Z</time>
      </trkpt>
      <trkpt lat="41.74559" lon="9.27627">
        <ele>272</ele>
        <time>2023-02-04T11:19:42Z</time>
      </trkpt>
      <trkpt lat="41.74562" lon="9.27624">
        <ele>271.4</ele>
        <time>2023-02-04T11:19:36Z</time>
      </trkpt>
      <trkpt lat="41.74564" lon="9.27614">
        <ele>273.2</ele>
        <time>2023-02-04T11:19:29Z</time>
      </trkpt>
      <trkpt lat="41.74565" lon="9.27609">
        <ele>274</ele>
        <time>2023-02-04T11:19:24Z</time>
      </trkpt>
      <trkpt lat="41.74566" lon="9.27602">
        <ele>275</ele>
        <time>2023-02-04T11:19:20Z</time>
      </trkpt>
      <trkpt lat="41.74565" lon="9.27591">
        <ele>277.5</ele>
        <time>2023-02-04T11:19:16Z</time>
      </trkpt>
      <trkpt lat="41.74573" lon="9.27581">
        <ele>277.9</ele>
        <time>2023-02-04T11:19:08Z</time>
      </trkpt>
      <trkpt lat="41.74575" lon="9.27568">
        <ele>280.8</ele>
        <time>2023-02-04T11:19:04Z</time>
      </trkpt>
      <trkpt lat="41.7458" lon="9.27564">
        <ele>281.1</ele>
        <time>2023-02-04T11:18:56Z</time>
      </trkpt>
      <trkpt lat="41.74591" lon="9.27551">
        <ele>282.7</ele>
      </trkpt>
      <trkpt lat="41.74595" lon="9.27544">
        <ele>283.7</ele>
        <time>2023-02-04T11:18:43Z</time>
      </trkpt>
      <trkpt lat="41.74597" lon="9.27534">
        <ele>285.1</ele>
        <time>2023-02-04T11:18:23Z</time>
      </trkpt>
      <trkpt lat="41.746" lon="9.27526">
        <ele>286</ele>
        <time>2023-02-04T11:18:20Z</time>
      </trkpt>
      <trkpt lat="41.74602" lon="9.27522">
        <ele>285.9</ele>
        <time>2023-02-04T11:18:14Z</time>
      </trkpt>
      <trkpt lat="41.74605" lon="9.27515">
        <ele>288</ele>
        <time>2023-02-04T11:18:10Z</time>
      </trkpt>
      <trkpt lat="41.74611" lon="9.27504">
        <ele>288</ele>
        <time>2023-02-04T11:18:02Z</time>
      </trkpt>
      <trkpt lat="41.74611" lon="9.27498">
        <ele>288</ele>
        <time>2023-02-04T11:17:58Z</time>
      </trkpt>
      <trkpt lat="41.74611" lon="9.2749">
        <ele>287.3</ele>
        <time>2023-02-04T11:17:54Z</time>
      </trkpt>
      <trkpt lat="41.74612" lon="9.27484">
        <ele>289</ele>
        <time>2023-02-04T11:17:50Z</time>
      </trkpt>
      <trkpt lat="41.74611" lon="9.27479">
        <ele>287.8</ele>
        <time>2023-02-04T11:17:47Z</time>
      </trkpt>
      <trkpt lat="41.7461" lon="9.27473">
        <ele>288.1</ele>
        <time>2023-02-04T11:17:43Z</time>
      </trkpt>
      <trkpt lat="41.74609" lon="9.27466">
        <ele>288.8</ele>
        <time>2023-02-04T11:17:39Z</time>
      </trkpt>
      <trkpt lat="41.74611" lon="9.27455">
        <ele>289.2</ele>
      </trkpt>
      <trkpt lat="41.74616" lon="9.27444">
        <ele>289.3</ele>
        <time>2023-02-04T11:17:24Z</time>
      </trkpt>
      <trkpt lat="41.74622" lon="9.27434">
        <ele>287.6</ele>
        <time>2023-02-04T11:17:15Z</time>
      </trkpt>
      <trkpt lat="41.74624" lon="9.2743">
        <ele>287</ele>
        <time>2023-02-04T11:16:30Z</time>
      </trkpt>
      <trkpt lat="41.74624" lon="9.27421">
        <ele>286.4</ele>
        <time>2023-02-04T11:16:18Z</time>
      </trkpt>
      <trkpt lat="41.7462" lon="9.2741">
        <ele>284.8</ele>
        <time>2023-02-04T11:16:12Z</time>
      </trkpt>
      <trkpt lat="41.74615" lon="9.27402">
        <ele>284.1</ele>
        <time>2023-02-04T11:16:02Z</time>
      </trkpt>
      <trkpt lat="41.7461" lon="9.27396">
        <ele>284.4</ele>
        <time>2023-02-04T11:15:51Z</time>
      </trkpt>
      <trkpt lat="41.7461" lon="9.27388">
        <ele>283.1</ele>
        <time>2023-02-04T11:15:43Z</time>
      </trkpt>
      <trkpt lat="41.74606" lon="9.27376">
        <ele>282.3</ele>
        <time>2023-02-04T11:15:33Z</time>
      </trkpt>
      <trkpt lat="41.74606" lon="9.27357">
        <ele>279.4</ele>
        <time>2023-02-04T11:15:29Z</time>
      </trkpt>
      <trkpt lat="41.74608" lon="9.27341">
        <ele>277.4</ele>
        <time>2023-02-04T11:15:07Z</time>
      </trkpt>
      <trkpt lat="41.7461" lon="9.27331">
        <ele>276.2</ele>
        <time>2023-02-04T11:14:59Z</time>
      </trkpt>
      <trkpt lat="41.74611" lon="9.27323">
        <ele>276.1</ele>
        <time>2023-02-04T11:14:54Z</time>
      </trkpt>
      <trkpt lat="41.74613" lon="9.27319">
        <ele>275.7</ele>
        <time>2023-02-04T11:14:44Z</time>
      </trkpt>
      <trkpt lat="41.74617" lon="9.27315">
        <ele>275.3</ele>
        <time>2023-02-04T11:14:36Z</time>
      </trkpt>
      <trkpt lat="41.7462" lon="9.2731">
        <ele>275</ele>
        <time>2023-02-04T11:14:31Z</time>
      </trkpt>
      <trkpt lat="41.74622" lon="9.27303">
        <ele>275.1</ele>
        <time>2023-02-04T11:14:26Z</time>
      </trkpt>
      <trkpt lat="41.74624" lon="9.27296">
        <ele>275.5</ele>
        <time>2023-02-04T11:14:20Z</time>
      </trkpt>
      <trkpt lat="41.74627" lon="9.27287">
        <ele>275.8</ele>
        <time>2023-02-04T11:14:15Z</time>
      </trkpt>
      <trkpt lat="41.74631" lon="9.27281">
        <ele>275.5</ele>
        <time>2023-02-04T11:14:06Z</time>
      </trkpt>
      <trkpt lat="41.74634" lon="9.27273">
        <ele>275.5</ele>
      </trkpt>
      <trkpt lat="41.74642" lon="9.27259">
        <ele>275.3</ele>
      </trkpt>
      <trkpt lat="41.74646" lon="9.27247">
        <ele>275</ele>
        <time>2023-02-04T11:13:40Z</time>
      </trkpt>
      <trkpt lat="41.74647" lon="9.27238">
        <ele>276.2</ele>
        <time>2023-02-04T11:13:28Z</time>
      </trkpt>
      <trkpt lat="41.74649" lon="9.27225">
        <ele>276.5</ele>
      </trkpt>
      <trkpt lat="41.74649" lon="9.27212">
        <ele>276</ele>
        <time>2023-02-04T11:12:33Z</time>
      </trkpt>
      <trkpt lat="41.7465" lon="9.27199">
        <ele>276.9</ele>
      </trkpt>
      <trkpt lat="41.74648" lon="9.27188">
        <ele>277</ele>
        <time>2023-02-04T11:12:09Z</time>
      </trkpt>
      <trkpt lat="41.74646" lon="9.27181">
        <ele>277.5</ele>
        <time>2023-02-04T11:11:58Z</time>
      </trkpt>
      <trkpt lat="41.7464" lon="9.2717">
        <ele>278</ele>
        <time>2023-02-04T11:11:23Z</time>
      </trkpt>
      <trkpt lat="41.74637" lon="9.27166">
        <ele>278</ele>
        <time>2023-02-04T11:11:11Z</time>
      </trkpt>
      <trkpt lat="41.74633" lon="9.27162">
        <ele>280</ele>
        <time>2023-02-04T11:10:53Z</time>
      </trkpt>
      <trkpt lat="41.74631" lon="9.27153">
        <ele>280.9</ele>
        <time>2023-02-04T11:10:41Z</time>
      </trkpt>
      <trkpt lat="41.74628" lon="9.27149">
        <ele>281.8</ele>
        <time>2023-02-04T11:10:35Z</time>
      </trkpt>
      <trkpt lat="41.74622" lon="9.27142">
        <ele>284</ele>
        <time>2023-02-04T11:10:23Z</time>
      </trkpt>
      <trkpt lat="41.74615" lon="9.27143">
        <ele>286</ele>
        <time>2023-02-04T11:10:13Z</time>
      </trkpt>
      <trkpt lat="41.74601" lon="9.27136">
        <ele>291</ele>
        <time>2023-02-04T11:09:36Z</time>
      </trkpt>
      <trkpt lat="41.74596" lon="9.27133">
        <ele>292</ele>
        <time>2023-02-04T11:09:25Z</time>
      </trkpt>
      <trkpt lat="41.7459" lon="9.2713">
        <ele>291.6</ele>
        <time>2023-02-04T11:09:13Z</time>
      </trkpt>
      <trkpt lat="41.74585" lon="9.27123">
        <ele>293.5</ele>
        <time>2023-02-04T11:09:00Z</time>
      </trkpt>
      <trkpt lat="41.74582" lon="9.2712">
        <ele>294</ele>
        <time>2023-02-04T11:08:52Z</time>
      </trkpt>
      <trkpt lat="41.74579" lon="9.27111">
        <ele>295.5</ele>
        <time>2023-02-04T11:08:35Z</time>
      </trkpt>
      <trkpt lat="41.74575" lon="9.27103">
        <ele>296.2</ele>
        <time>2023-02-04T11:08:05Z</time>
      </trkpt>
      <trkpt lat="41.74571" lon="9.27098">
        <ele>296.6</ele>
        <time>2023-02-04T11:07:53Z</time>
      </trkpt>
      <trkpt lat="41.74567" lon="9.27092">
        <ele>296.9</ele>
        <time>2023-02-04T11:07:30Z</time>
      </trkpt>
      <trkpt lat="41.74565" lon="9.27084">
        <ele>297</ele>
        <time>2023-02-04T11:07:24Z</time>
      </trkpt>
      <trkpt lat="41.74566" lon="9.27076">
        <ele>296.8</ele>
        <time>2023-02-04T11:07:18Z</time>
      </trkpt>
      <trkpt lat="41.74563" lon="9.27067">
        <ele>296</ele>
        <time>2023-02-04T11:07:11Z</time>
      </trkpt>
      <trkpt lat="41.74562" lon="9.2706">
        <ele>295</ele>
        <time>2023-02-04T11:06:59Z</time>
      </trkpt>
      <trkpt lat="41.74563" lon="9.27053">
        <ele>295</ele>
        <time>2023-02-04T11:06:51Z</time>
      </trkpt>
      <trkpt lat="41.74561" lon="9.27045">
        <ele>294</ele>
        <time>2023-02-04T11:06:44Z</time>
      </trkpt>
      <trkpt lat="41.74564" lon="9.27034">
        <ele>293</ele>
        <time>2023-02-04T11:06:32Z</time>
      </trkpt>
      <trkpt lat="41.74565" lon="9.27024">
        <ele>293</ele>
        <time>2023-02-04T11:06:20Z</time>
      </trkpt>
      <trkpt lat="41.74566" lon="9.27016">
        <ele>292</ele>
        <time>2023-02-04T11:04:50Z</time>
      </trkpt>
      <trkpt lat="41.74564" lon="9.27013">
        <ele>292.6</ele>
      </trkpt>
      <trkpt lat="41.74564" lon="9.27014">
        <ele>292.7</ele>
      </trkpt>
      <trkpt lat="41.74564" lon="9.27009">
        <ele>292.1</ele>
      </trkpt>
      <trkpt lat="41.74559" lon="9.27001">
        <ele>295.1</ele>
      </trkpt>
      <trkpt lat="41.74553" lon="9.26988">
        <ele>295.2</ele>
      </trkpt>
      <trkpt lat="41.74545" lon="9.26981">
        <ele>297</ele>
      </trkpt>
      <trkpt lat="41.74539" lon="9.26966">
        <ele>296.6</ele>
      </trkpt>
      <trkpt lat="41.74534" lon="9.26955">
        <ele>295.1</ele>
      </trkpt>
      <trkpt lat="41.74526" lon="9.26946">
        <ele>295.3</ele>
      </trkpt>
      <trkpt lat="41.74513" lon="9.26937">
        <ele>300.3</ele>
      </trkpt>
      <trkpt lat="41.74503" lon="9.26924">
        <ele>301.6</ele>
      </trkpt>
      <trkpt lat="41.74501" lon="9.2692">
        <ele>301.3</ele>
        <time>2023-01-29T10:37:49Z</time>
      </trkpt>
      <trkpt lat="41.74501" lon="9.26908">
        <ele>298.2</ele>
        <time>2023-01-29T10:38:26Z</time>
      </trkpt>
      <trkpt lat="41.74502" lon="9.26902">
        <ele>296.4</ele>
        <time>2023-01-29T10:38:33Z</time>
      </trkpt>
      <trkpt lat="41.74498" lon="9.26897">
        <ele>293</ele>
        <time>2023-01-29T10:38:50Z</time>
      </trkpt>
      <trkpt lat="41.74489" lon="9.26891">
        <ele>297.8</ele>
        <time>2023-01-29T10:38:55Z</time>
      </trkpt>
      <trkpt lat="41.74487" lon="9.26877">
        <ele>298</ele>
        <time>2023-01-29T10:39:11Z</time>
      </trkpt>
      <trkpt lat="41.74497" lon="9.26867">
        <ele>298.5</ele>
      </trkpt>
      <trkpt lat="41.74508" lon="9.26863">
        <ele>298.6</ele>
      </trkpt>
      <trkpt lat="41.74516" lon="9.2686">
        <ele>298.4</ele>
      </trkpt>
      <trkpt lat="41.74518" lon="9.26856">
        <ele>298.1</ele>
        <time>2023-01-29T10:40:08Z</time>
      </trkpt>
      <trkpt lat="41.74521" lon="9.2685">
        <ele>297.6</ele>
        <time>2023-01-29T10:40:13Z</time>
      </trkpt>
      <trkpt lat="41.74524" lon="9.26843">
        <ele>296.7</ele>
        <time>2023-01-29T10:40:17Z</time>
      </trkpt>
      <trkpt lat="41.74525" lon="9.26835">
        <ele>296.2</ele>
        <time>2023-01-29T10:40:23Z</time>
      </trkpt>
      <trkpt lat="41.74525" lon="9.26827">
        <ele>295.6</ele>
        <time>2023-01-29T10:40:34Z</time>
      </trkpt>
      <trkpt lat="41.74524" lon="9.26817">
        <ele>293</ele>
        <time>2023-01-29T10:40:38Z</time>
      </trkpt>
      <trkpt lat="41.7452" lon="9.26811">
        <ele>292</ele>
        <time>2023-01-29T10:40:46Z</time>
      </trkpt>
      <trkpt lat="41.74518" lon="9.26802">
        <ele>292</ele>
        <time>2023-01-29T10:41:00Z</time>
      </trkpt>
      <trkpt lat="41.74515" lon="9.26789">
        <ele>301.7</ele>
        <time>2023-01-29T10:41:30Z</time>
      </trkpt>
      <trkpt lat="41.74514" lon="9.26778">
        <ele>306.6</ele>
        <time>2023-01-29T10:41:36Z</time>
      </trkpt>
      <trkpt lat="41.74507" lon="9.26764">
        <ele>306.5</ele>
        <time>2023-01-29T10:41:42Z</time>
      </trkpt>
      <trkpt lat="41.74495" lon="9.26756">
        <ele>304.4</ele>
        <time>2023-01-29T10:41:49Z</time>
      </trkpt>
      <trkpt lat="41.74489" lon="9.26748">
        <ele>305.7</ele>
        <time>2023-01-29T10:42:21Z</time>
      </trkpt>
      <trkpt lat="41.74486" lon="9.26737">
        <ele>307.6</ele>
        <time>2023-01-29T10:42:26Z</time>
      </trkpt>
      <trkpt lat="41.7448" lon="9.26718">
        <ele>308</ele>
        <time>2023-01-29T10:42:47Z</time>
      </trkpt>
      <trkpt lat="41.74473" lon="9.26725">
        <ele>308.6</ele>
      </trkpt>
      <trkpt lat="41.74472" lon="9.26716">
        <ele>309.9</ele>
        <time>2023-01-29T10:42:52Z</time>
      </trkpt>
      <trkpt lat="41.74467" lon="9.267">
        <ele>312.2</ele>
        <time>2023-01-29T10:42:57Z</time>
      </trkpt>
      <trkpt lat="41.74474" lon="9.26691">
        <ele>312</ele>
        <time>2023-01-29T10:43:17Z</time>
      </trkpt>
      <trkpt lat="41.74471" lon="9.26679">
        <ele>315.9</ele>
        <time>2023-01-29T10:43:25Z</time>
      </trkpt>
      <trkpt lat="41.74467" lon="9.26678">
        <ele>313</ele>
        <time>2023-01-29T10:43:29Z</time>
      </trkpt>
      <trkpt lat="41.7446" lon="9.26669">
        <ele>314</ele>
        <time>2023-01-29T10:43:39Z</time>
      </trkpt>
      <trkpt lat="41.74453" lon="9.26646">
        <ele>317</ele>
        <time>2023-01-29T10:43:57Z</time>
      </trkpt>
      <trkpt lat="41.74443" lon="9.26627">
        <ele>323</ele>
      </trkpt>
      <trkpt lat="41.74428" lon="9.26613">
        <ele>325</ele>
      </trkpt>
      <trkpt lat="41.74421" lon="9.26606">
        <ele>325.6</ele>
      </trkpt>
      <trkpt lat="41.74413" lon="9.26602">
        <ele>324.9</ele>
        <time>2023-01-29T10:44:43Z</time>
      </trkpt>
      <trkpt lat="41.7441" lon="9.26597">
        <ele>323</ele>
        <time>2023-01-29T10:44:46Z</time>
      </trkpt>
      <trkpt lat="41.74403" lon="9.26588">
        <ele>325</ele>
        <time>2023-01-29T10:44:53Z</time>
      </trkpt>
      <trkpt lat="41.7439" lon="9.26577">
        <ele>327.8</ele>
        <time>2023-01-29T10:45:11Z</time>
      </trkpt>
      <trkpt lat="41.7438" lon="9.26569">
        <ele>327.5</ele>
        <time>2023-01-29T10:45:14Z</time>
      </trkpt>
      <trkpt lat="41.74381" lon="9.26562">
        <ele>329.8</ele>
        <time>2023-01-29T10:45:41Z</time>
      </trkpt>
      <trkpt lat="41.74382" lon="9.26558">
        <ele>331.2</ele>
        <time>2023-01-29T10:45:47Z</time>
      </trkpt>
      <trkpt lat="41.74381" lon="9.26551">
        <ele>333</ele>
        <time>2023-01-29T10:45:52Z</time>
      </trkpt>
      <trkpt lat="41.74378" lon="9.26546">
        <ele>334</ele>
        <time>2023-01-29T10:45:57Z</time>
      </trkpt>
      <trkpt lat="41.74371" lon="9.26542">
        <ele>335</ele>
        <time>2023-01-29T10:46:05Z</time>
      </trkpt>
      <trkpt lat="41.74367" lon="9.26535">
        <ele>337.7</ele>
      </trkpt>
      <trkpt lat="41.74359" lon="9.2653">
        <ele>338</ele>
        <time>2023-01-29T10:46:23Z</time>
      </trkpt>
      <trkpt lat="41.74353" lon="9.26521">
        <ele>339.1</ele>
        <time>2023-01-29T10:46:26Z</time>
      </trkpt>
      <trkpt lat="41.74346" lon="9.26514">
        <ele>339.7</ele>
        <time>2023-01-29T10:46:35Z</time>
      </trkpt>
      <trkpt lat="41.74339" lon="9.26506">
        <ele>340</ele>
        <time>2023-01-29T10:46:43Z</time>
      </trkpt>
      <trkpt lat="41.74336" lon="9.265">
        <ele>342</ele>
        <time>2023-01-29T10:46:51Z</time>
      </trkpt>
    </trkseg>
  </trk>
</gpx>